This is the latest recevied weather packets stored in our database for station/object K1JO. If no packets are shown the sender has not sent any weather packets the latest 10 day(s).
| Time | Temp. | Humidity | Pressure | Rain* | Wind** | Luminosity | Snow |
|---|---|---|---|---|---|---|---|
| 1777744609 | 6.11° C | 84% | 1009.8 hPa | 0 mm | - | 67 W/m² | - |
| 1777744305 | 6.67° C | 84% | 1009.7 hPa | 0 mm | - | 54 W/m² | - |
| 1777744002 | 6.67° C | 87% | 1009.7 hPa | 0 mm | - | 64 W/m² | - |
| 1777743698 | 6.67° C | 84% | 1009.7 hPa | 0 mm | - | 66 W/m² | - |
| 1777743396 | 6.67° C | 84% | 1009.6 hPa | 0 mm | - | 78 W/m² | - |
| 1777743094 | 7.22° C | 84% | 1009.7 hPa | 0 mm | - | 98 W/m² | - |
| 1777742791 | 7.22° C | 86% | 1009.7 hPa | 0 mm | - | 84 W/m² | - |
| 1777742487 | 7.22° C | 88% | 1009.9 hPa | 0 mm | - | 85 W/m² | - |
| 1777742182 | 7.22° C | 86% | 1009.9 hPa | 1.27 mm | - | 67 W/m² | - |
| 1777741880 | 7.22° C | 84% | 1010.1 hPa | 1.27 mm | - | 81 W/m² | - |
| 1777741577 | 7.22° C | 84% | 1009.8 hPa | 0 mm | - | 180 W/m² | - |
| 1777741274 | 7.22° C | 84% | 1010 hPa | 0 mm | - | 180 W/m² | - |
| 1777740970 | 7.22° C | 84% | 1010.1 hPa | 0 mm | - | 180 W/m² | - |
| 1777740668 | 7.22° C | 84% | 1010 hPa | 0 mm | - | 180 W/m² | - |
| 1777740363 | 7.22° C | 84% | 1010.1 hPa | 0 mm | - | 180 W/m² | - |
| 1777740060 | 7.22° C | 84% | 1010.3 hPa | 0 mm | - | 180 W/m² | - |
| 1777739756 | 7.22° C | 84% | 1010.1 hPa | 0 mm | - | 180 W/m² | - |
| 1777739453 | 7.22° C | 84% | 1010.2 hPa | 0 mm | - | 180 W/m² | - |
| 1777739150 | 7.22° C | 81% | 1010.3 hPa | 0 mm | - | 161 W/m² | - |
| 1777738847 | 7.78° C | 81% | 1010.3 hPa | 0 mm | - | 163 W/m² | - |
| 1777738544 | 7.78° C | 72% | 1010.5 hPa | 0 mm | - | 233 W/m² | - |
| 1777738242 | 7.78° C | 72% | 1010.5 hPa | 0 mm | - | 233 W/m² | - |
| 1777737940 | 7.78° C | 72% | 1010.6 hPa | 0 mm | - | 233 W/m² | - |
| 1777737638 | 7.78° C | 72% | 1010.6 hPa | 0 mm | - | 233 W/m² | - |
| 1777737336 | 7.78° C | 72% | 1010.7 hPa | 0 mm | - | 233 W/m² | - |
* Rain latest hour (hover to see other rain measurements)
** Current wind speed in m/s (hover to see current wind gust speed)